Total_Precipitation_Accumulation
0.16 0.24 0.61 0.79 0.80 0.71 0.64 0.58 0.53 0.52 0.50 0.47 0.47 0.47 0.44 0.41 0.38 0.37 0.39 0.42 0.48 0.58 0.68 0.76 0.79 0.85 0.79 0.60 0.43 0.31 0.31 0.33 0.27 0.24 0.23 0.27 0.34 0.37 0.31 0.31 0.32 0.38 0.53
0.17 0.27 0.56 0.79 0.89 0.84 0.74 0.65 0.56 0.51 0.49 0.52 0.53 0.56 0.54 0.48 0.45 0.46 0.50 0.54 0.62 0.72 0.80 0.82 0.79 0.80 0.72 0.58 0.40 0.26 0.19 0.16 0.10 0.07 0.06 0.10 0.21 0.31 0.29 0.28 0.29 0.43 0.50
0.19 0.29 0.53 0.79 0.94 0.94 0.86 0.76 0.67 0.63 0.60 0.62 0.65 0.68 0.66 0.62 0.59 0.60 0.63 0.65 0.72 0.78 0.79 0.81 0.75 0.71 0.63 0.52 0.37 0.27 0.17 0.13 0.09 0.06 0.08 0.12 0.24 0.34 0.32 0.30 0.36 0.46 0.50
0.24 0.34 0.53 0.81 1.02 1.04 0.97 0.88 0.82 0.84 0.79 0.76 0.79 0.80 0.78 0.79 0.75 0.72 0.72 0.74 0.75 0.75 0.72 0.68 0.57 0.51 0.41 0.36 0.31 0.26 0.19 0.14 0.09 0.09 0.15 0.18 0.25 0.47 0.48 0.45 0.46 0.47 0.47
0.38 0.47 0.69 0.92 1.11 1.16 1.05 1.04 1.00 1.02 1.01 0.96 0.91 0.91 0.92 0.90 0.85 0.79 0.76 0.77 0.73 0.68 0.62 0.57 0.45 0.34 0.29 0.26 0.24 0.24 0.18 0.13 0.10 0.12 0.17 0.22 0.31 0.58 0.55 0.52 0.48 0.44 0.48
0.54 0.63 0.85 1.07 1.23 1.27 1.14 1.10 1.11 1.13 1.16 1.13 1.04 0.98 1.00 0.99 0.91 0.80 0.75 0.69 0.63 0.58 0.54 0.46 0.38 0.31 0.27 0.25 0.23 0.22 0.19 0.12 0.09 0.12 0.17 0.23 0.30 0.52 0.46 0.43 0.43 0.45 0.48
0.77 0.87 1.04 1.28 1.50 1.53 1.40 1.31 1.27 1.24 1.24 1.26 1.16 1.08 1.10 1.12 1.09 0.91 0.76 0.65 0.55 0.52 0.47 0.42 0.36 0.33 0.29 0.26 0.27 0.21 0.16 0.11 0.11 0.14 0.16 0.23 0.37 0.56 0.50 0.44 0.42 0.44 0.46
0.98 1.11 1.31 1.55 1.67 1.76 1.66 1.55 1.50 1.44 1.34 1.31 1.30 1.25 1.21 1.24 1.24 1.02 0.78 0.65 0.60 0.55 0.48 0.44 0.41 0.35 0.32 0.27 0.26 0.20 0.14 0.10 0.11 0.13 0.15 0.19 0.38 0.56 0.54 0.48 0.43 0.40 0.40
1.28 1.44 1.57 1.71 1.81 1.98 1.83 1.64 1.63 1.60 1.51 1.43 1.40 1.35 1.26 1.25 1.19 1.02 0.80 0.70 0.67 0.61 0.54 0.48 0.47 0.43 0.36 0.30 0.26 0.19 0.14 0.10 0.08 0.12 0.12 0.18 0.33 0.50 0.52 0.51 0.48 0.45 0.41
1.61 1.77 1.84 1.92 1.94 2.09 2.03 1.76 1.60 1.50 1.48 1.51 1.44 1.25 1.04 1.04 1.07 0.99 0.74 0.67 0.68 0.61 0.54 0.52 0.49 0.46 0.38 0.29 0.24 0.19 0.15 0.15 0.12 0.11 0.13 0.18 0.32 0.46 0.47 0.53 0.53 0.50 0.47
2.00 2.07 2.12 2.09 2.01 2.08 2.15 1.93 1.82 1.67 1.56 1.51 1.47 1.23 1.07 1.08 1.04 0.95 0.72 0.55 0.61 0.59 0.57 0.57 0.56 0.49 0.40 0.30 0.23 0.17 0.14 0.17 0.16 0.15 0.16 0.23 0.36 0.48 0.51 0.54 0.53 0.52 0.46
2.11 2.20 2.30 2.22 2.16 2.19 2.22 2.14 2.11 1.94 1.75 1.62 1.47 1.34 1.23 1.12 1.09 0.96 0.85 0.62 0.58 0.58 0.60 0.64 0.58 0.55 0.44 0.33 0.25 0.21 0.18 0.16 0.18 0.17 0.19 0.28 0.43 0.52 0.52 0.50 0.49 0.50 0.50
2.29 2.37 2.46 2.38 2.38 2.35 2.30 2.17 2.11 1.99 1.93 1.83 1.70 1.47 1.40 1.33 1.20 1.18 1.03 0.90 0.82 0.67 0.67 0.63 0.60 0.53 0.44 0.37 0.32 0.26 0.23 0.22 0.21 0.19 0.22 0.28 0.43 0.53 0.56 0.56 0.54 0.52 0.58
2.53 2.65 2.67 2.61 2.61 2.56 2.46 2.27 2.04 1.88 1.82 1.81 1.73 1.68 1.58 1.48 1.32 1.19 1.07 0.94 0.88 0.77 0.69 0.62 0.55 0.48 0.44 0.43 0.42 0.35 0.28 0.24 0.22 0.23 0.22 0.24 0.32 0.49 0.58 0.60 0.62 0.63 0.67
2.80 2.85 2.92 2.87 2.76 2.62 2.59 2.50 2.13 1.85 1.67 1.67 1.70 1.69 1.66 1.50 1.33 1.24 1.12 1.06 0.97 0.83 0.78 0.74 0.64 0.54 0.47 0.46 0.45 0.39 0.35 0.29 0.26 0.28 0.26 0.23 0.23 0.37 0.55 0.60 0.64 0.71 0.78
2.98 3.12 3.23 3.12 2.97 2.69 2.50 2.51 2.32 2.00 1.77 1.69 1.64 1.63 1.71 1.64 1.50 1.44 1.22 1.17 1.09 0.99 0.92 0.88 0.82 0.78 0.66 0.58 0.51 0.44 0.42 0.37 0.35 0.38 0.35 0.29 0.24 0.26 0.40 0.61 0.80 0.89 0.96
3.07 3.30 3.40 3.39 3.25 2.91 2.62 2.55 2.44 2.23 2.02 1.83 1.56 1.52 1.60 1.69 1.74 1.71 1.43 1.28 1.20 1.15 1.13 1.06 0.98 0.94 0.87 0.73 0.61 0.55 0.48 0.42 0.37 0.37 0.35 0.33 0.29 0.25 0.27 0.45 0.70 0.86 0.97
3.13 3.32 3.43 3.45 3.41 3.20 2.86 2.71 2.62 2.40 2.22 2.05 1.81 1.63 1.57 1.64 1.80 1.91 1.59 1.37 1.27 1.25 1.22 1.15 1.07 1.00 0.88 0.82 0.72 0.63 0.54 0.47 0.41 0.37 0.35 0.32 0.30 0.26 0.24 0.29 0.44 0.65 0.80
2.96 3.22 3.49 3.48 3.41 3.34 3.20 3.06 2.93 2.76 2.52 2.28 1.99 1.77 1.75 1.78 1.86 2.03 1.74 1.47 1.40 1.34 1.24 1.22 1.17 1.12 1.00 0.90 0.84 0.76 0.67 0.56 0.47 0.42 0.37 0.32 0.30 0.27 0.25 0.25 0.27 0.36 0.52
2.76 3.07 3.27 3.59 3.59 3.64 3.64 3.49 3.32 3.19 2.93 2.61 2.23 1.94 1.88 1.88 1.89 2.06 1.99 1.71 1.61 1.50 1.34 1.22 1.19 1.22 1.22 1.13 1.02 0.91 0.82 0.71 0.60 0.50 0.43 0.37 0.31 0.28 0.26 0.26 0.26 0.28 0.34
2.52 2.83 2.98 3.23 3.51 3.61 3.57 3.33 3.15 3.03 3.05 2.91 2.56 2.25 2.18 2.09 1.97 2.00 2.06 1.97 1.75 1.60 1.47 1.36 1.28 1.26 1.30 1.35 1.33 1.17 1.01 0.87 0.73 0.61 0.53 0.46 0.40 0.34 0.32 0.33 0.34 0.35 0.35
2.23 2.41 2.72 2.84 3.19 3.31 3.22 3.21 3.12 3.12 3.12 3.08 2.92 2.64 2.47 2.35 2.20 2.09 2.03 2.02 1.92 1.75 1.67 1.63 1.51 1.43 1.37 1.36 1.39 1.38 1.25 1.16 0.92 0.70 0.62 0.58 0.52 0.49 0.45 0.41 0.40 0.42 0.42
1.97 2.24 2.36 2.50 2.77 3.09 3.21 3.37 3.51 3.52 3.32 3.11 2.99 2.91 2.72 2.61 2.47 2.27 2.14 2.11 2.07 1.89 1.73 1.72 1.73 1.69 1.65 1.61 1.50 1.58 1.46 1.20 1.00 0.82 0.68 0.64 0.61 0.60 0.56 0.51 0.47 0.48 0.49
1.62 2.00 2.31 2.51 2.67 2.88 3.28 3.31 3.22 3.13 2.93 2.69 2.74 2.86 2.87 2.78 2.70 2.52 2.41 2.33 2.20 2.04 1.89 1.87 1.88 1.93 1.94 1.87 1.77 1.59 1.43 1.22 1.17 1.01 0.78 0.68 0.65 0.61 0.59 0.57 0.52 0.48 0.48
1.36 1.72 2.08 2.35 2.67 2.89 3.04 3.13 3.18 2.99 2.78 2.73 2.74 2.79 2.74 2.70 2.67 2.61 2.54 2.58 2.44 2.24 2.12 2.09 2.07 2.12 2.14 2.07 1.94 1.79 1.66 1.45 1.27 1.21 1.00 0.80 0.78 0.72 0.63 0.58 0.57 0.58 0.60
1.23 1.45 1.81 2.09 2.24 2.53 2.84 2.92 2.97 2.95 2.90 2.83 2.66 2.63 2.68 2.68 2.66 2.60 2.60 2.59 2.56 2.46 2.31 2.23 2.19 2.21 2.20 2.15 2.10 1.94 1.83 1.71 1.48 1.41 1.28 1.04 0.99 0.91 0.80 0.72 0.67 0.66 0.67